Home > Weather > Bludenz > Past weeks

Flag for Austria Past Weather in Bludenz, Vorarlberg, Austria — Yesterday and Last 2 Weeks

Now
60 °F

Cool.


Feels Like: 60 °F
Forecast: 60 / 75 °F
Wind: 5 mph from South

Location: Feldkirch

Current Time: Jun 26, 2016 at 10:55:54 PM

Latest Report: Jun 26, 2016 at 10:00 PM


Visibility: N/A

Pressure: 30.11 "Hg (28.16 "Hg at 563m altitude)

Humidity: 80%

Dew Point: 54 °F

Location of BludenzLocation

Past Weather in Bludenz — Graph

°F

Bludenz Temperature Yesterday

Maximum temperature yesterday: 80 °F (at 1:00 PM)
Minimum temperature yesterday: 63 °F (at 7:00 PM)
Average temperature yesterday: 69 °F

High & Low Weather Summary for the Past Weeks

 TemperatureHumidityPressure
High88 °F (Jun 23, 6:00 PM)98% (Jun 14, 6:00 AM)30.27 "Hg (Jun 14, 6:00 AM)
Low46 °F (Jun 17, 6:00 AM)41% (Jun 24, 3:00 PM)29.55 "Hg (Jun 14, 2:00 PM)
Average63 °F79%29.94 "Hg
* Reported Jun 11 9:00 PM — Jun 26 9:00 PM, Bludenz, Weather by CustomWeather, © 2016

Note: Actual official high and low records may vary slightly from our data, if they occured in-between our weather recording intervals... More about our weather records

Advertising

Bludenz Weather History for the Previous 24 Hours

Scroll right to see more
 ConditionsComfort  
Time TempWeatherWind HumidityBarometerVisibility
9:00 PM
Sun, Jun 26
60 °FCool.3 mph80%30.09 "HgN/A
8:00 PM62 °FCool.1 mph74%30.08 "HgN/A
7:00 PM63 °FMild.1 mph74%30.08 "HgN/A
6:00 PM63 °FMild.1 mph76%30.07 "HgN/A
5:00 PM63 °FMild.2 mph69%30.07 "HgN/A
4:00 PM64 °FMild.1 mph69%30.07 "HgN/A
3:00 PM64 °FMild.1 mph75%30.08 "HgN/A
2:00 PM63 °FMild.1 mph77%30.09 "HgN/A
1:00 PM63 °FMild.1 mph81%30.09 "HgN/A
12:00 PM62 °FCool.1 mph81%30.09 "HgN/A
11:00 AM61 °FFog.1 mph85%30.09 "Hg3 mi
10:00 AM60 °FCool.2 mph87%30.09 "HgN/A
8:00 AM61 °FCool.1 mph92%30.07 "HgN/A
7:00 AM60 °FOvercast.1 mph95%30.07 "Hg2 mi
6:00 AM60 °FCool.1 mph95%30.07 "HgN/A
5:00 AM60 °FCool.No wind94%30.07 "HgN/A
4:00 AM60 °FSprinkles. Overcast.No wind94%30.07 "HgN/A
3:00 AM60 °FSprinkles. Overcast.1 mph92%30.07 "HgN/A
2:00 AM61 °FCool.1 mph89%30.06 "HgN/A
1:00 AM61 °FCool.1 mph91%30.06 "HgN/A
12:00 AM63 °FMild.No wind95%30.06 "HgN/A
11:00 PM
Sat, Jun 25
63 °FMild.1 mph92%30.04 "HgN/A
10:00 PM63 °FMild.No wind92%30.03 "HgN/A
Weather by CustomWeather, © 2016

See weather overviewHow to use our weather pages